Weather reports worldwide

Advertisment
Altnaharra, United Kingdom (3044): temperature & dewpoint: 15.01.2020 05:00:00 - 21.01.2020 05:00:00 (GMT)Altnaharra, United Kingdom (3044): temperature -20cm & temperature -100cm: 15.01.2020 05:00:00 - 21.01.2020 05:00:00 (GMT)Altnaharra, United Kingdom (3044): wind speed & gusts: 15.01.2020 05:00:00 - 21.01.2020 05:00:00 (GMT)Altnaharra, United Kingdom (3044): wind direction: 15.01.2020 05:00:00 - 21.01.2020 05:00:00 (GMT)Altnaharra, United Kingdom (3044): reduced air pressure: 15.01.2020 05:00:00 - 21.01.2020 05:00:00 (GMT)Altnaharra, United Kingdom (3044): visibility: 15.01.2020 05:00:00 - 21.01.2020 05:00:00 (GMT)Altnaharra, United Kingdom (3044): sunshine duration: 15.01.2020 05:00:00 - 21.01.2020 05:00:00 (GMT)Altnaharra, United Kingdom (3044): precipitation: 15.01.2020 05:00:00 - 21.01.2020 05:00:00 (GMT)
Date & Time tt [°C] td [°C] tt -20cm [°C] tt -100cm [°C] ff [km/h] ff [kn] fx [km/h] fx [kn] dd ppp [hPa] vv [km] sd [min] rr [mm]
21.01.2020 05:00:00 6,8 6,3 - - 4 2 - - SSW 1035,0 19 0 0,0
21.01.2020 04:00:00 7,3 6,6 - - 16 9 - - NW 1034,6 30 0 0,2
21.01.2020 03:00:00 9,1 8,4 - - 21 11 61 33 NW 1034,0 7 0 0,2
21.01.2020 02:00:00 10,4 8,4 - - 31 17 54 29 SW 1031,1 9 0 0,0
21.01.2020 01:00:00 10,4 8,3 - - 15 8 - - S 1032,7 13 0 0,0
21.01.2020 00:00:00 10,2 8,1 - - 16 9 48 26 SW 1032,0 11 - 0,0
20.01.2020 23:00:00 10,2 7,9 - - 28 15 55 30 SSW 1031,9 16 0 0,0
20.01.2020 22:00:00 10,3 7,9 - - 24 13 55 30 SSW 1032,2 15 0 0,0
20.01.2020 21:00:00 9,8 7,5 - - 22 12 48 26 SSW 1032,0 12 0 0,0
20.01.2020 20:00:00 9,8 7,5 - - 26 14 50 27 SSW 1032,2 25 0 0,0
20.01.2020 19:00:00 9,8 6,9 - - 22 12 54 29 SW 1032,1 30 0 0,0
20.01.2020 18:00:00 9,3 6,5 - - 26 14 46 25 SW 1032,3 45 0 0,0
20.01.2020 17:00:00 9,4 6,6 - - 24 13 - - SW 1033,2 35 0 0,0
20.01.2020 16:00:00 9,5 6,8 - - 18 10 - - SW 1033,2 18 0 0,0
20.01.2020 15:00:00 10,2 6,9 - - 24 13 46 25 SW 1033,6 45 30 0,0
20.01.2020 14:00:00 10,3 7,1 - - 24 13 59 32 WSW 1033,6 24 60 0,0
20.01.2020 13:00:00 10,7 7,1 - - 35 19 59 32 WSW 1033,6 45 42 0,0
20.01.2020 12:00:00 12,0 6,9 - - 9 5 - - ENE 1033,3 40 36 0,0
20.01.2020 11:00:00 11,1 5,9 - - 5 3 - - N 1034,0 40 42 0,0
20.01.2020 10:00:00 9,8 6,3 - - 18 10 52 28 ESE 1034,0 40 0 0,0
20.01.2020 09:00:00 9,7 5,9 4,7 5,7 18 10 55 30 S 1034,9 40 0 0,0
20.01.2020 08:00:00 9,7 6,8 - - 31 17 59 32 WSW 1034,2 30 0 0,0
20.01.2020 07:00:00 10,0 7,0 - - 37 20 74 40 SSW 1033,4 45 0 0,0
20.01.2020 06:00:00 10,2 7,4 - - 28 15 55 30 SSW 1033,7 40 0 0,0
20.01.2020 05:00:00 10,3 7,5 - - 31 17 59 32 SSW 1034,0 35 0 0,0
20.01.2020 04:00:00 9,8 7,3 - - 34 18 63 34 SSW 1034,2 35 0 0,0
20.01.2020 03:00:00 9,8 6,9 - - 31 17 55 30 SSW 1033,7 40 0 0,0
20.01.2020 02:00:00 9,3 6,4 - - 22 12 48 26 SSW 1034,0 45 0 0,0
20.01.2020 01:00:00 9,4 6,2 - - 11 6 - - S 1035,3 45 0 0,0
20.01.2020 00:00:00 9,2 5,9 - - 16 9 - - SW 1035,6 35 - 0,0
19.01.2020 23:00:00 9,0 5,5 - - 15 8 50 27 SSW 1035,0 40 0 0,0
19.01.2020 22:00:00 9,0 5,4 - - 18 10 48 26 SSW 1035,0 40 0 0,0
19.01.2020 21:00:00 9,1 5,1 - - 21 11 50 27 SSW 1034,9 40 0 0,0
19.01.2020 20:00:00 9,0 5,0 - - 24 13 52 28 SSW 1034,6 50 0 0,0
19.01.2020 19:00:00 8,8 4,7 - - 18 10 61 33 SSW 1034,9 50 0 0,0
19.01.2020 18:00:00 8,7 4,6 - - 29 16 52 28 S 1034,2 35 0 0,0
19.01.2020 17:00:00 8,5 4,1 - - 29 16 65 35 SW 1034,0 40 0 0,0
19.01.2020 16:00:00 8,0 3,6 - - 24 13 68 37 SW 1033,4 30 0 0,0
19.01.2020 15:00:00 7,7 2,6 - - 18 10 - - SW 1034,0 35 0 0,0
19.01.2020 14:00:00 7,4 1,1 - - 28 15 - - ESE 1034,1 50 0 0,0
19.01.2020 13:00:00 7,1 0,6 - - 28 15 - - SSE 1034,7 35 0 0,0
19.01.2020 12:00:00 7,0 2,0 - - 26 14 - - S 1034,6 45 0 0,0
19.01.2020 11:00:00 6,9 2,5 - - 18 10 - - S 1035,5 50 0 0,0
19.01.2020 10:00:00 6,5 2,3 - - 21 11 - - S 1034,9 40 0 0,0
19.01.2020 09:00:00 6,7 2,9 4,4 5,7 22 12 - - ESE 1035,2 50 0 0,0
19.01.2020 08:00:00 5,7 2,6 - - 16 9 - - S 1036,2 40 0 0,0
19.01.2020 07:00:00 5,2 1,8 - - 15 8 - - SSW 1036,3 50 0 0,0
19.01.2020 06:00:00 5,1 1,2 - - 18 10 - - S 1036,1 50 0 0,0
19.01.2020 05:00:00 5,5 0,8 - - 15 8 - - SSW 1035,4 50 0 0,0
19.01.2020 04:00:00 5,4 1,3 - - 15 8 - - SSW 1035,0 50 0 0,0
19.01.2020 03:00:00 4,3 1,1 - - 15 8 - - SSW 1035,0 35 0 0,0
19.01.2020 02:00:00 5,0 0,6 - - 15 8 - - SW 1034,7 45 0 0,0
19.01.2020 01:00:00 4,2 -0,1 - - 16 9 - - S 1034,1 45 0 0,0
19.01.2020 00:00:00 5,0 -0,1 - - 15 8 - - SSW 1033,9 50 - 0,0
18.01.2020 23:00:00 4,8 0,6 - - 13 7 - - S 1032,9 40 0 0,0
18.01.2020 22:00:00 3,1 0,2 - - 13 7 - - SE 1032,0 35 0 0,0
18.01.2020 21:00:00 2,3 0,8 - - 9 5 - - SSE 1031,2 26 0 0,0
18.01.2020 20:00:00 1,2 -0,1 - - 4 2 - - S 1030,7 35 0 0,0
18.01.2020 19:00:00 3,5 1,9 - - 16 9 - - WSW 1029,8 29 0 0,2
18.01.2020 18:00:00 1,9 0,2 - - 13 7 - - W 1028,6 25 0 0,0
18.01.2020 17:00:00 2,4 0,8 - - 11 6 - - W 1027,3 23 0 0,0
18.01.2020 16:00:00 2,1 0,3 - - 13 7 - - W 1026,0 19 6 0,0
18.01.2020 15:00:00 4,0 2,1 - - 22 12 57 31 WNW 1024,5 25 6 0,2
18.01.2020 14:00:00 5,2 1,8 - - 24 13 - - W 1023,1 22 24 0,2
18.01.2020 13:00:00 5,2 2,0 - - 28 15 48 26 W 1021,9 23 48 0,0
18.01.2020 12:00:00 3,5 0,8 - - 22 12 59 32 W 1020,9 30 30 0,0
18.01.2020 11:00:00 2,9 0,4 - - 37 20 57 31 W 1019,8 40 6 0,2
18.01.2020 10:00:00 2,4 0,4 - - 21 11 50 27 WNW 1018,6 35 0 0,8
18.01.2020 09:00:00 3,0 0,6 4,7 5,7 39 21 55 30 WNW 1017,1 12 0 0,4
18.01.2020 08:00:00 2,2 1,0 - - 15 8 61 33 W 1016,2 7 0 0,8
18.01.2020 07:00:00 3,4 0,5 - - 28 15 48 26 NW 1015,1 30 0 0,4
18.01.2020 06:00:00 1,5 0,3 - - 9 5 - - W 1014,4 24 0 1,2
18.01.2020 05:00:00 2,4 0,1 - - 26 14 55 30 WSW 1013,3 35 0 0,6
18.01.2020 04:00:00 1,9 0,1 - - 15 8 54 29 WNW 1012,5 30 0 1,0
18.01.2020 03:00:00 3,7 1,0 - - 24 13 50 27 W 1011,3 20 0 0,0
18.01.2020 02:00:00 3,0 -0,3 - - 26 14 65 35 WSW 1010,6 40 0 0,6
18.01.2020 01:00:00 3,4 1,0 - - 22 12 63 34 NW 1009,5 14 0 0,0
18.01.2020 00:00:00 3,8 1,6 - - 22 12 - - NW 1008,5 15 - 0,0
17.01.2020 23:00:00 3,7 2,2 - - 18 10 - - W 1007,3 16 0 0,8
17.01.2020 22:00:00 2,8 1,8 - - 21 11 - - W 1007,3 13 0 1,6
17.01.2020 21:00:00 3,8 2,3 - - 24 13 55 30 W 1005,7 16 0 1,0
17.01.2020 20:00:00 4,8 2,3 - - 34 18 55 30 SW 1004,4 8 0 0,4
17.01.2020 19:00:00 5,6 2,0 - - 28 15 61 33 WSW 1003,5 14 0 0,0
17.01.2020 18:00:00 5,4 2,1 - - 35 19 61 33 WSW 1002,6 50 0 0,2
17.01.2020 17:00:00 6,1 2,7 - - 29 16 50 27 SW 1001,3 20 0 0,0
17.01.2020 16:00:00 5,6 2,6 - - 22 12 59 32 SW 1000,2 23 0 0,2
17.01.2020 15:00:00 5,3 3,1 - - 29 16 48 26 WSW 999,6 18 0 0,2
17.01.2020 14:00:00 6,3 2,6 - - 21 11 52 28 SW 998,5 18 0 0,0
17.01.2020 13:00:00 6,6 2,2 - - 21 11 54 29 SW 997,4 17 0 0,0
17.01.2020 12:00:00 6,7 1,9 - - 21 11 50 27 SSW 996,8 24 0 0,0
17.01.2020 11:00:00 6,2 2,3 - - 24 13 50 27 SSW 995,6 20 0 0,0
17.01.2020 10:00:00 4,2 2,6 - - 24 13 50 27 S 995,2 50 0 0,0
17.01.2020 09:00:00 3,4 2,1 4,7 5,7 26 14 52 28 S 994,6 7 0 1,4
17.01.2020 08:00:00 4,6 1,2 - - 34 18 57 31 S 993,3 35 0 0,0
17.01.2020 07:00:00 4,7 0,5 - - 31 17 54 29 S 993,1 50 0 0,0
17.01.2020 06:00:00 5,3 0,3 - - 29 16 50 27 S 992,4 35 0 0,0
17.01.2020 05:00:00 5,0 0,5 - - 29 16 57 31 S 992,6 35 0 0,0
17.01.2020 04:00:00 5,3 1,3 - - 22 12 52 28 S 992,5 50 0 0,0
17.01.2020 03:00:00 5,9 0,7 - - 24 13 50 27 S 992,2 50 0 0,0
17.01.2020 02:00:00 5,7 0,8 - - 34 18 57 31 SSE 991,7 40 0 0,0
17.01.2020 01:00:00 6,4 1,8 - - 24 13 - - S 991,2 30 0 0,0
17.01.2020 00:00:00 6,0 2,2 - - 21 11 - - S 990,4 50 - 0,0
16.01.2020 23:00:00 5,0 1,1 - - 16 9 48 26 S 989,6 27 0 0,0
16.01.2020 22:00:00 6,2 1,9 - - 18 10 46 25 S 989,2 35 0 0,0
16.01.2020 21:00:00 6,9 3,5 - - 28 15 50 27 SSE 988,2 35 0 0,0
16.01.2020 20:00:00 8,1 3,4 - - 35 19 67 36 ENE 987,2 50 0 0,0
16.01.2020 19:00:00 7,3 3,3 - - 21 11 63 34 SE 987,9 45 0 0,0
16.01.2020 18:00:00 6,7 4,1 - - 42 23 65 35 ESE 988,4 40 0 1,2
16.01.2020 17:00:00 6,6 4,0 - - 29 16 55 30 E 990,5 15 0 0,2
16.01.2020 16:00:00 8,1 3,3 - - 24 13 67 36 E 991,9 50 0 0,0
16.01.2020 15:00:00 8,4 3,2 - - 41 22 78 42 ESE 993,0 50 0 0,0
16.01.2020 14:00:00 8,6 3,8 - - 15 8 61 33 E 995,7 50 0 0,0
16.01.2020 13:00:00 8,3 4,1 - - 29 16 54 29 ESE 997,5 50 0 0,0
16.01.2020 12:00:00 7,1 3,7 - - 37 20 50 27 ESE 998,9 50 0 0,0
16.01.2020 11:00:00 5,1 3,0 - - 26 14 - - NE 1000,3 45 0 0,0
16.01.2020 10:00:00 5,7 2,5 - - 24 13 - - E 1000,9 50 0 0,0
16.01.2020 09:00:00 5,6 1,5 4,5 5,7 16 9 - - ENE 1001,2 50 0 0,0
16.01.2020 08:00:00 2,8 0,0 - - 8 4 - - N 1001,4 50 0 0,0
16.01.2020 07:00:00 3,2 0,7 - - 5 3 - - N 1001,6 50 0 0,0
16.01.2020 06:00:00 4,0 1,2 - - 9 5 - - SSE 1001,6 45 0 0,0
16.01.2020 05:00:00 4,0 0,8 - - 15 8 - - SSE 1001,7 25 0 0,0
16.01.2020 04:00:00 5,4 0,9 - - 16 9 - - SSW 1000,9 35 0 0,0
16.01.2020 03:00:00 5,8 1,7 - - 22 12 - - SW 1000,0 23 0 0,4
16.01.2020 02:00:00 5,1 1,9 - - 16 9 55 30 SW 998,9 35 0 0,0
16.01.2020 01:00:00 5,8 2,0 - - 18 10 54 29 SSW 997,7 24 0 0,0
16.01.2020 00:00:00 5,7 3,1 - - 29 16 61 33 S 996,7 9 - 0,8
15.01.2020 23:00:00 6,1 3,6 - - 24 13 46 25 SSW 995,3 45 0 0,4
15.01.2020 22:00:00 6,4 4,0 - - 18 10 - - SSW 993,6 40 0 0,4
15.01.2020 21:00:00 6,2 4,3 - - 22 12 50 27 SSW 991,7 6 0 0,6
15.01.2020 20:00:00 7,1 3,3 - - 24 13 50 27 SW 989,7 35 0 0,2
15.01.2020 19:00:00 7,2 3,4 - - 26 14 61 33 SW 987,9 17 0 0,0
15.01.2020 18:00:00 6,8 3,7 - - 22 12 52 28 SSW 986,2 16 0 0,0
15.01.2020 17:00:00 6,6 4,0 - - 16 9 - - SSW 984,7 40 0 0,2
15.01.2020 16:00:00 5,9 3,6 - - 18 10 48 26 SSW 983,6 40 0 1,0
15.01.2020 15:00:00 6,4 3,8 - - 21 11 - - SSW 981,9 45 0 0,0
15.01.2020 14:00:00 6,6 4,3 - - 22 12 - - SSW 980,4 8 0 0,2
15.01.2020 13:00:00 6,6 4,4 - - 22 12 46 25 SSW 979,0 16 0 0,2
15.01.2020 12:00:00 6,0 3,8 - - 24 13 50 27 S 977,7 50 0 0,8
15.01.2020 11:00:00 5,7 2,1 - - 26 14 50 27 S 977,0 40 0 0,0
15.01.2020 10:00:00 5,0 1,9 - - 34 18 65 35 S 976,3 50 0 0,0
15.01.2020 09:00:00 5,5 0,5 4,4 5,9 42 23 72 39 S 974,9 24 0 0,0
15.01.2020 08:00:00 5,0 0,7 - - 44 24 65 35 SSE 974,3 35 0 0,0
15.01.2020 07:00:00 4,4 1,0 - - 35 19 67 36 S 973,5 45 0 0,0
15.01.2020 06:00:00 3,7 1,1 - - 42 23 68 37 SSE 973,2 26 0 0,0
15.01.2020 05:00:00 3,9 0,0 - - 39 21 68 37 S 972,4 30 0 0,0

tt = temperature
td = dewpoint
tt -20cm = temperature -20cm
tt -100cm = temperature -100cm
ff = wind speed
fx = gusts
dd = wind direction
ppp = reduced air pressure
vv = visibility
sd = sunshine duration
rr = precipitation

Next stations